Location: Taylor Dark Sky Site
(39.1017°N, 87.9564°W)
Time: 05:22:13
(UTC-06:00)

Amateur Radio Satellites - All Passes

Search period start: 21 December 2014 04:52
Search period end: 22 December 2014 04:52
Location: Taylor Dark Sky Site, 39.1017°N, 87.9564°W

Satellite Date Start Highest point End Downlink Frequencies (MHz)
Time Altitude Azimuth
CUBESAT XI-V 21 Dec 05:03:42 05:07:40 28° 69° (ENE) 05:11:36 437.345
JAS-2 21 Dec 05:17:25 05:23:01 75° 286° (WNW) 05:28:12 435.910
MOZHAYETS 4 21 Dec 05:17:52 05:20:39 16° 268° (W) 05:23:28
VERMONT LUNAR 21 Dec 05:24:07 05:27:38 69° 4° (N) 05:31:10 437.305
STRAND 1 21 Dec 05:24:52 05:29:41 43° 71° (ENE) 05:34:29 437.568
Cubesat XI-IV 21 Dec 05:37:38 05:42:29 35° 98° (E) 05:47:20 437.490
PHONESAT 2.4 21 Dec 05:40:16 05:43:53 69° 3° (N) 05:47:30 2401.200-2431.200
PRISM 21 Dec 05:49:11 05:53:09 39° 261° (W) 05:57:08 437.425
SO-50 21 Dec 06:04:55 06:09:42 55° 243° (WSW) 06:14:29 436.795
CUTE-I 21 Dec 06:10:26 06:15:46 72° 103° (ESE) 06:21:03 437.470
AO-7 21 Dec 06:39:30 06:44:05 16° 311° (NW) 06:48:41 29.400- 29.500
CUBESAT XI-V 21 Dec 06:41:02 06:45:01 28° 264° (W) 06:49:00 437.345
GONETS M04 21 Dec 06:45:46 06:53:33 34° 288° (WNW) 07:01:24
VERMONT LUNAR 21 Dec 07:02:30 07:05:57 54° 201° (SSW) 07:09:24 437.305
STRAND 1 21 Dec 07:05:12 07:09:01 21° 266° (W) 07:12:51 437.568
Cubesat XI-IV 21 Dec 07:17:58 07:22:25 28° 293° (WNW) 07:26:51 437.490
PHONESAT 2.4 21 Dec 07:19:01 07:22:36 61° 199° (SSW) 07:26:11 2401.200-2431.200
BRITE-PL 21 Dec 07:37:36 07:40:35 16° 93° (E) 07:43:41 437.365/2234.400
HO-68 21 Dec 07:38:03 07:43:17 21° 93° (E) 07:48:28 435.675
MaSat-1 21 Dec 07:51:05 07:53:02 23° 111° (ESE) 07:54:55 437.345
CUTE-I 21 Dec 07:52:22 07:55:11 15° 299° (WNW) 07:58:01 437.470
GOMX 1 21 Dec 08:00:39 08:04:14 20° 94° (E) 08:07:59 467.674
AAUSAT CUBESAT 2 21 Dec 08:09:52 08:12:37 17° 93° (E) 08:15:22 437.432
DOVE 4 21 Dec 08:22:49 08:26:49 25° 95° (E) 08:30:58 437.250
CANX-2 21 Dec 08:24:40 08:28:49 44° 99° (E) 08:32:56 2200.000
CUSAT 1 21 Dec 08:32:55 08:35:51 23° 85° (E) 08:39:30 437.405
ANTELSAT 21 Dec 08:37:52 08:40:33 16° 65° (ENE) 08:43:17 437.575/2403.000
VERMONT LUNAR 21 Dec 08:42:07 08:43:47 13° 215° (SW) 08:45:26 437.305
CINEMA 3 21 Dec 08:43:32 08:47:26 24° 95° (E) 08:51:26 145.822/145.860
COMPASS 1 21 Dec 08:44:35 08:48:44 48° 99° (E) 08:52:50 437.405
SEEDS 21 Dec 08:50:58 08:55:16 71° 101° (ESE) 08:59:31 437.485
CUTE 1.7 + AOD 2 21 Dec 08:55:17 08:59:37 88° 283° (WNW) 09:03:55 437.475
DELFI C3 21 Dec 08:57:38 09:00:57 23° 95° (E) 09:04:14 145.870
FUNcube-1 21 Dec 08:58:05 09:00:29 14° 91° (E) 09:02:52 145.935
O/OREOS (USA 219) 21 Dec 08:58:25 09:01:02 15° 55° (NE) 09:03:38 437.305
PHONESAT 2.4 21 Dec 08:58:38 09:00:51 16° 214° (SW) 09:03:05 2401.200-2431.200
UWE-3 21 Dec 08:59:53 09:03:04 18° 93° (E) 09:06:16 435.000/436.395/437.385
POPSAT HIP 1 21 Dec 09:05:40 09:08:41 19° 67° (ENE) 09:11:42 437.405
YUBILEINY 21 Dec 09:05:53 09:11:42 19° 64° (ENE) 09:17:29 435.215
RS-15 21 Dec 09:10:32 09:14:11 12° 96° (E) 09:17:49 29.354- 29.394
TIGRISAT 21 Dec 09:11:27 09:15:23 35° 71° (ENE) 09:19:26 435.000
DX 1 21 Dec 09:12:58 09:16:50 31° 97° (E) 09:20:41 434.975-435.025
BRITE-PL 21 Dec 09:14:40 09:19:16 52° 286° (WNW) 09:24:14 437.365/2234.400
AISAT 21 Dec 09:19:45 09:21:32 12° 91° (E) 09:23:19 437.250
HO-68 21 Dec 09:24:24 09:31:29 67° 290° (WNW) 09:38:31 435.675
HUMSAT D 21 Dec 09:26:43 09:29:26 16° 93° (E) 09:32:08 437.325/437.525
DANDE 21 Dec 09:27:13 09:30:37 86° 98° (E) 09:35:14 436.750
BUGSAT 1 21 Dec 09:28:24 09:31:51 27° 70° (ENE) 09:35:17 437.445
DUCHIFAT 1 21 Dec 09:32:17 09:36:10 37° 72° (ENE) 09:40:03 145.980
Oscar 11 21 Dec 09:33:56 09:38:19 77° 102° (ESE) 09:42:39 145.826/435.025
GOMX 1 21 Dec 09:37:55 09:42:26 42° 287° (WNW) 09:47:14 467.674
UNISAT 6 21 Dec 09:40:31 09:44:51 77° 76° (ENE) 09:49:21 437.425
UKube-1 21 Dec 09:42:57 09:47:16 67° 102° (ESE) 09:51:34 .
AAUSAT CUBESAT 2 21 Dec 09:44:30 09:48:25 37° 288° (WNW) 09:52:18 437.432
QB50P2 21 Dec 09:46:05 09:50:13 56° 74° (ENE) 09:54:22 145.880/145.840
POLYITAN 1 21 Dec 09:55:07 09:59:18 73° 76° (ENE) 10:03:31 437.675
NANOSAT C BR1 21 Dec 09:56:41 10:00:52 75° 76° (ENE) 10:05:05 145.865
CUBEBUG 2 21 Dec 09:58:28 10:03:09 89° 283° (WNW) 10:07:54 437.445
DOVE 4 21 Dec 10:00:14 10:04:33 34° 289° (WNW) 10:09:05 437.250
CANX-2 21 Dec 10:01:46 10:04:22 16° 294° (WNW) 10:06:58 2200.000
ZACube-1 21 Dec 10:06:01 10:10:35 80° 102° (ESE) 10:15:11 437.345
VELOX 1 21 Dec 10:10:33 10:14:48 45° 99° (E) 10:19:02 145.980
QB50P1 21 Dec 10:11:14 10:15:26 73° 258° (WSW) 10:19:39 145.935-145.965
ANTELSAT 21 Dec 10:12:45 10:16:56 46° 261° (W) 10:21:15 437.575/2403.000
CUSAT 1 21 Dec 10:15:52 10:18:52 22° 294° (WNW) 10:22:34 437.405
ESTCUBE 1 21 Dec 10:16:23 10:19:46 21° 94° (E) 10:23:08 437.505/2401.250
CINEMA 3 21 Dec 10:20:21 10:24:38 34° 289° (WNW) 10:29:03 145.822/145.860
COMPASS 1 21 Dec 10:21:46 10:24:01 14° 295° (WNW) 10:26:15 437.405
SEEDS 21 Dec 10:29:51 10:30:28 10° 297° (WNW) 10:31:05 437.485
FUNcube-1 21 Dec 10:32:40 10:37:05 53° 286° (WNW) 10:41:32 145.935
DELFI C3 21 Dec 10:32:43 10:36:09 26° 290° (WNW) 10:39:33 145.870
50 SAT 21 Dec 10:33:07 10:37:17 75° 102° (ESE) 10:41:26 437.505
UWE-3 21 Dec 10:35:24 10:39:44 42° 288° (WNW) 10:44:07 435.000/436.395/437.385
O/OREOS (USA 219) 21 Dec 10:36:22 10:40:47 55° 252° (WSW) 10:45:12 437.305
POPSAT HIP 1 21 Dec 10:40:33 10:44:20 33° 263° (W) 10:48:10 437.405
TIGRISAT 21 Dec 10:49:07 10:52:14 19° 267° (W) 10:55:26 435.000
DX 1 21 Dec 10:49:33 10:52:53 22° 293° (WNW) 10:56:13 434.975-435.025
AISAT 21 Dec 10:54:08 10:58:29 57° 286° (WNW) 11:02:50 437.250
CUBEBUG 1 21 Dec 10:57:19 11:01:35 56° 100° (E) 11:05:50 437.445
YUBILEINY 21 Dec 11:00:54 11:09:37 85° 265° (W) 11:18:20 435.215
HUMSAT D 21 Dec 11:01:18 11:05:23 41° 288° (WNW) 11:09:29 437.325/437.525
BUGSAT 1 21 Dec 11:04:07 11:07:18 22° 265° (W) 11:10:29 437.445
DUCHIFAT 1 21 Dec 11:09:29 11:12:09 16° 267° (W) 11:14:50 145.980
RS-15 21 Dec 11:13:29 11:24:18 69° 115° (ESE) 11:35:06 29.354- 29.394
HO-68 21 Dec 11:15:15 11:17:51 12° 309° (NW) 11:20:27 435.675
UKube-1 21 Dec 11:21:37 11:22:50 11° 298° (WNW) 11:24:04 .
QB50P2 21 Dec 11:25:19 11:26:28 11° 269° (W) 11:27:37 145.880/145.840
ZACube-1 21 Dec 11:45:40 11:46:17 10° 298° (WNW) 11:46:55 437.345
VELOX 1 21 Dec 11:48:15 11:51:00 17° 295° (WNW) 11:53:46 145.980
ESTCUBE 1 21 Dec 11:52:39 11:56:42 34° 290° (WNW) 12:00:44 437.505/2401.250
TISAT 1 21 Dec 11:56:10 12:00:22 62° 101° (E) 12:04:33 437.305
Oscar 19 21 Dec 11:59:01 12:03:45 39° 70° (ENE) 12:08:31 437.125/150
BEESAT 2 21 Dec 12:00:38 12:03:49 22° 111° (ESE) 12:07:02 435.950
PCSat 21 Dec 12:00:48 12:03:59 16° 104° (ESE) 12:07:11 145.827
ISS 21 Dec 12:01:33 12:04:00 19° 131° (SE) 12:06:27 145.825
SPROUT 21 Dec 12:02:05 12:06:23 68° 101° (ESE) 12:10:40 437.525
JUGNU 21 Dec 12:05:35 12:06:39 11° 175° (S) 12:07:43 437.505
ITAMSAT 1 21 Dec 12:17:35 12:21:31 22° 65° (ENE) 12:25:27 435.822/435.867
Gurwin Techsat 1B 21 Dec 12:18:56 12:21:40 14° 61° (ENE) 12:24:24 435.225
CUBEBUG 1 21 Dec 12:35:28 12:37:28 13° 296° (WNW) 12:39:27 437.445
BEESAT 3 21 Dec 12:56:56 13:01:01 77° 302° (WNW) 13:05:11 437.485
YUBILEINY 21 Dec 13:00:37 13:05:01 15° 283° (WNW) 13:09:25 435.215
SWISSCUBE 21 Dec 13:05:11 13:09:51 52° 100° (E) 13:14:28 437.505
ITUPSAT 1 21 Dec 13:06:03 13:10:40 48° 100° (E) 13:15:14 437.325
AIST 2 21 Dec 13:08:42 13:12:49 56° 117° (ESE) 13:17:02 435.215
HORYU 2 21 Dec 13:13:08 13:15:42 15° 64° (ENE) 13:18:16 437.375
RS-15 21 Dec 13:27:35 13:37:25 37° 319° (NW) 13:47:25 29.354- 29.394
BEESAT 21 Dec 13:29:56 13:34:44 88° 103° (ESE) 13:39:29 436.000
TISAT 1 21 Dec 13:34:18 13:35:39 11° 297° (WNW) 13:37:01 437.305
ISS 21 Dec 13:37:13 13:40:22 42° 327° (NNW) 13:43:32 145.825
BEESAT 2 21 Dec 13:38:08 13:41:52 32° 308° (NW) 13:45:40 435.950
Oscar 19 21 Dec 13:39:07 13:43:11 24° 266° (W) 13:47:17 437.125/150
SPROUT 21 Dec 13:40:52 13:41:53 11° 297° (WNW) 13:42:53 437.525
PCSat 21 Dec 13:41:26 13:46:48 65° 300° (WNW) 13:52:12 145.827
AO-7 21 Dec 13:50:53 13:57:51 31° 58° (ENE) 14:04:51 29.400- 29.500
JUGNU 21 Dec 13:53:37 13:54:44 11° 185° (S) 13:55:51 437.505
AUBIESAT-1 21 Dec 13:53:59 13:58:06 47° 103° (ESE) 14:01:52 437.475
Gurwin Techsat 1B 21 Dec 13:55:41 14:00:58 74° 257° (WSW) 14:06:18 435.225
ITAMSAT 1 21 Dec 13:55:47 14:00:42 43° 261° (W) 14:05:38 435.822/435.867
STARS 21 Dec 14:13:41 14:17:43 33° 98° (E) 14:21:45 437.465
KKS-1 21 Dec 14:19:05 14:23:31 59° 101° (E) 14:27:56 437.445
M-CUBED/EXP-1 PRIME 21 Dec 14:20:12 14:24:32 74° 289° (WNW) 14:28:27 437.505
SWISSCUBE 21 Dec 14:44:20 14:47:16 17° 296° (WNW) 14:50:11 437.505
ITUPSAT 1 21 Dec 14:45:01 14:48:09 18° 296° (WNW) 14:51:18 437.325
HORYU 2 21 Dec 14:47:35 14:51:55 51° 260° (W) 14:56:18 437.375
AIST 2 21 Dec 14:49:03 14:51:48 17° 315° (NW) 14:54:35 435.215
SRMSAT 21 Dec 14:58:32 15:00:00 11° 183° (S) 15:01:28 437.500
GONETS M04 21 Dec 15:00:31 15:07:10 23° 67° (ENE) 15:13:45
BEESAT 21 Dec 15:11:43 15:11:49 10° 300° (WNW) 15:11:54 436.000
ISS 21 Dec 15:16:12 15:17:38 12° 346° (NNW) 15:19:05 145.825
JAS-2 21 Dec 15:26:08 15:33:17 46° 70° (ENE) 15:39:51 435.910
PCSat 21 Dec 15:29:35 15:31:18 11° 320° (NW) 15:33:01 145.827
AUBIESAT-1 21 Dec 15:30:09 15:32:34 15° 302° (WNW) 15:34:53 437.475
MOZHAYETS 4 21 Dec 15:37:11 15:39:09 13° 90° (E) 15:41:06
AO-7 21 Dec 15:41:56 15:50:07 61° 257° (WSW) 15:58:23 29.400- 29.500
AIST 1 21 Dec 15:42:14 15:46:22 42° 92° (E) 15:50:30
RS-15 21 Dec 15:47:39 15:54:24 17° 353° (N) 16:01:16 29.354- 29.394
STARS 21 Dec 15:50:38 15:53:59 21° 293° (WNW) 15:57:20 437.465
CUTE-I 21 Dec 15:54:45 15:57:15 14° 60° (ENE) 15:59:45 437.470
KKS-1 21 Dec 15:57:34 15:59:38 13° 297° (WNW) 16:01:43 437.445
GONETS M04 21 Dec 16:56:06 17:04:49 73° 267° (W) 17:13:26
Cubesat XI-IV 21 Dec 16:58:31 17:03:40 53° 72° (ENE) 17:08:51 437.490
JAS-2 21 Dec 17:11:28 17:18:18 35° 264° (W) 17:24:41 435.910
MOZHAYETS 4 21 Dec 17:12:11 17:16:44 59° 286° (WNW) 17:21:14
AIST 1 21 Dec 17:21:40 17:24:14 15° 288° (WNW) 17:26:48
MaSat-1 21 Dec 17:21:47 17:23:52 25° 62° (ENE) 17:26:03 437.345
CUTE-I 21 Dec 17:31:18 17:36:37 79° 257° (WSW) 17:41:57 437.470
PRISM 21 Dec 17:33:34 17:37:14 30° 97° (E) 17:40:52 437.425
STRAND 1 21 Dec 17:37:51 17:40:50 16° 92° (E) 17:43:49 437.568
RS-15 21 Dec 18:03:37 18:12:29 26° 29° (NNE) 18:21:34 29.354- 29.394
HO-68 21 Dec 18:07:31 18:11:29 16° 54° (NE) 18:15:27 435.675
DANDE 21 Dec 18:26:15 18:30:44 16° 64° (ENE) 18:35:29 436.750
ISS 21 Dec 18:30:15 18:32:57 23° 26° (NNE) 18:35:40 145.825
CUBESAT XI-V 21 Dec 18:38:11 18:42:49 81° 102° (ESE) 18:47:24 437.345
Cubesat XI-IV 21 Dec 18:40:28 18:44:03 18° 267° (W) 18:47:39 437.490
BRITE-PL 21 Dec 18:49:18 18:51:19 13° 65° (ENE) 18:53:21 437.365/2234.400
GONETS M04 21 Dec 18:57:14 18:59:55 12° 286° (WNW) 19:02:37
AAUSAT CUBESAT 2 21 Dec 19:02:09 19:03:16 11° 63° (ENE) 19:04:23 437.432
PRISM 21 Dec 19:09:29 19:12:34 21° 293° (WNW) 19:15:38 437.425
GOMX 1 21 Dec 19:09:30 19:12:01 16° 66° (ENE) 19:14:33 467.674
CUSAT 1 21 Dec 19:10:21 19:17:31 37° 73° (ENE) 19:25:11 437.405
STRAND 1 21 Dec 19:15:23 19:20:22 57° 287° (WNW) 19:25:20 437.568
CANX-2 21 Dec 19:17:04 19:20:43 28° 70° (ENE) 19:24:23 2200.000
DOVE 4 21 Dec 19:28:58 19:31:54 19° 67° (ENE) 19:34:52 437.250
COMPASS 1 21 Dec 19:35:28 19:39:07 29° 70° (ENE) 19:42:49 437.405
SEEDS 21 Dec 19:42:16 19:46:15 42° 73° (ENE) 19:50:18 437.485
CINEMA 3 21 Dec 19:45:48 19:48:32 17° 66° (ENE) 19:51:20 145.822/145.860
DELFI C3 21 Dec 19:46:29 19:48:38 14° 65° (ENE) 19:50:48 145.870
CUTE 1.7 + AOD 2 21 Dec 19:47:06 19:51:16 56° 74° (ENE) 19:55:29 437.475
HO-68 21 Dec 19:50:56 19:58:07 83° 73° (ENE) 20:05:20 435.675
UWE-3 21 Dec 19:58:01 19:59:46 12° 63° (ENE) 20:01:31 435.000/436.395/437.385
ISS 21 Dec 20:06:31 20:09:40 44° 223° (SW) 20:12:47 145.825
DANDE 21 Dec 20:07:17 20:15:11 75° 80° (E) 20:23:54 436.750
DX 1 21 Dec 20:08:01 20:11:32 25° 68° (ENE) 20:15:03 434.975-435.025
RS-15 21 Dec 20:15:50 20:27:10 74° 56° (ENE) 20:38:59 29.354- 29.394
SO-50 21 Dec 20:18:20 20:22:48 65° 118° (ESE) 20:27:25 436.795
AISAT 21 Dec 20:18:29 20:19:27 11° 62° (ENE) 20:20:26 437.250
CUBESAT XI-V 21 Dec 20:19:02 20:19:33 10° 298° (WNW) 20:20:04 437.345
HUMSAT D 21 Dec 20:20:40 20:21:07 10° 63° (ENE) 20:21:35 437.325/437.525
BEESAT 2 21 Dec 20:22:10 20:24:14 13° 43° (NE) 20:26:17 435.950
BRITE-PL 21 Dec 20:25:28 20:29:28 45° 261° (W) 20:33:28 437.365/2234.400
Oscar 11 21 Dec 20:27:35 20:31:46 51° 73° (ENE) 20:36:00 145.826/435.025
AAUSAT CUBESAT 2 21 Dec 20:34:11 20:38:21 64° 259° (W) 20:42:34 437.432
UKube-1 21 Dec 20:36:57 20:41:08 49° 73° (ENE) 20:45:19 .
GOMX 1 21 Dec 20:45:58 20:49:50 38° 262° (W) 20:53:45 467.674
PCSat 21 Dec 20:48:58 20:51:34 13° 42° (NE) 20:54:10 145.827
CUSAT 1 21 Dec 20:53:07 21:00:44 52° 268° (W) 21:08:52 437.405
CANX-2 21 Dec 20:53:13 20:56:37 23° 265° (W) 21:00:03 2200.000
CUBEBUG 2 21 Dec 20:56:05 21:00:13 65° 75° (ENE) 21:04:28 437.445
ZACube-1 21 Dec 21:01:19 21:05:23 53° 74° (ENE) 21:09:33 437.345
DOVE 4 21 Dec 21:05:46 21:09:28 31° 263° (W) 21:13:13 437.250
VELOX 1 21 Dec 21:07:33 21:11:34 35° 71° (ENE) 21:15:36 145.980
COMPASS 1 21 Dec 21:11:36 21:14:50 21° 266° (W) 21:18:07 437.405
ESTCUBE 1 21 Dec 21:15:44 21:18:48 18° 66° (ENE) 21:21:53 437.505/2401.250
BEESAT 3 21 Dec 21:17:49 21:21:50 45° 55° (NE) 21:25:48 437.485
DELFI C3 21 Dec 21:19:33 21:23:29 46° 261° (W) 21:27:29 145.870
SEEDS 21 Dec 21:19:48 21:22:16 15° 268° (W) 21:24:46 437.485
50 SAT 21 Dec 21:20:28 21:24:12 39° 72° (ENE) 21:27:59 437.505
CINEMA 3 21 Dec 21:21:37 21:25:27 36° 263° (W) 21:29:24 145.822/145.860
CUTE 1.7 + AOD 2 21 Dec 21:26:10 21:27:32 11° 270° (W) 21:28:55 437.475
FUNcube-1 21 Dec 21:27:34 21:31:44 76° 258° (WSW) 21:36:01 145.935
UWE-3 21 Dec 21:31:41 21:35:47 55° 260° (W) 21:39:59 435.000/436.395/437.385
AIST 2 21 Dec 21:32:02 21:35:47 28° 50° (NE) 21:39:28 435.215
UNISAT 6 21 Dec 21:34:43 21:38:03 19° 93° (E) 21:41:23 437.425
QB50P2 21 Dec 21:36:04 21:36:32 10° 90° (E) 21:37:01 145.880/145.840
HO-68 21 Dec 21:42:18 21:46:33 16° 269° (W) 21:50:49 435.675
POLYITAN 1 21 Dec 21:43:51 21:45:57 13° 92° (E) 21:48:03 437.675
DX 1 21 Dec 21:43:56 21:47:39 27° 263° (W) 21:51:22 434.975-435.025
NANOSAT C BR1 21 Dec 21:44:55 21:47:01 13° 92° (E) 21:49:06 145.865
AISAT 21 Dec 21:51:03 21:55:27 72° 258° (WSW) 21:59:53 437.250
DANDE 21 Dec 21:52:01 21:58:06 24° 274° (W) 22:04:35 436.750
HUMSAT D 21 Dec 21:52:13 21:56:19 67° 259° (W) 22:00:30 437.325/437.525
CUBEBUG 1 21 Dec 21:52:39 21:56:44 40° 72° (ENE) 22:00:49 437.445
QB50P1 21 Dec 21:58:41 22:01:48 20° 94° (E) 22:04:55 145.935-145.965
BEESAT 2 21 Dec 21:58:48 22:02:59 74° 241° (WSW) 22:07:06 435.950
SO-50 21 Dec 22:00:48 22:03:49 17° 317° (NW) 22:06:53 436.795
ANTELSAT 21 Dec 22:05:54 22:10:22 40° 98° (E) 22:14:48 437.575/2403.000
Oscar 11 21 Dec 22:06:12 22:08:13 13° 269° (W) 22:10:15 145.826/435.025
YUBILEINY 21 Dec 22:06:29 22:12:43 22° 80° (E) 22:18:56 435.215
UKube-1 21 Dec 22:15:26 22:17:33 13° 268° (W) 22:19:40 .
POPSAT HIP 1 21 Dec 22:26:49 22:30:52 41° 99° (E) 22:34:54 437.405
RS-15 21 Dec 22:29:21 22:38:34 30° 256° (WSW) 22:48:09 29.354- 29.394
PCSat 21 Dec 22:30:26 22:35:53 79° 61° (ENE) 22:41:18 145.827
TIGRISAT 21 Dec 22:40:24 22:45:08 88° 284° (WNW) 22:49:51 435.000
ZACube-1 21 Dec 22:40:39 22:42:06 12° 270° (W) 22:43:35 437.345
VELOX 1 21 Dec 22:45:03 22:48:14 19° 266° (W) 22:51:26 145.980
BUGSAT 1 21 Dec 22:46:42 22:50:42 55° 101° (E) 22:54:42 437.445
TISAT 1 21 Dec 22:47:50 22:51:45 39° 72° (ENE) 22:55:40 437.305
ESTCUBE 1 21 Dec 22:51:03 22:55:21 42° 261° (W) 22:59:39 437.505/2401.250
DUCHIFAT 1 21 Dec 22:53:59 22:58:15 86° 103° (ESE) 23:02:31 145.980
SPROUT 21 Dec 22:55:21 22:59:24 44° 73° (ENE) 23:03:29 437.525
BEESAT 3 21 Dec 22:57:08 22:59:37 16° 251° (WSW) 23:02:05 437.485
50 SAT 21 Dec 22:57:20 22:59:35 15° 268° (W) 23:01:52 437.505
QB50P2 21 Dec 23:08:35 23:12:49 63° 285° (WNW) 23:17:03 145.880/145.840
O/OREOS (USA 219) 21 Dec 23:09:39 23:12:44 19° 101° (E) 23:15:49 437.305
UNISAT 6 21 Dec 23:10:32 23:14:59 42° 288° (WNW) 23:19:24 437.425
AIST 2 21 Dec 23:10:41 23:14:20 28° 247° (WSW) 23:17:56 435.215
POLYITAN 1 21 Dec 23:18:00 23:22:08 49° 287° (WNW) 23:26:17 437.675
NANOSAT C BR1 21 Dec 23:19:02 23:23:08 48° 287° (WNW) 23:27:14 145.865
CUBEBUG 1 21 Dec 23:30:29 23:33:15 17° 267° (W) 23:36:02 437.445
QB50P1 21 Dec 23:33:55 23:37:44 33° 289° (WNW) 23:41:33 145.935-145.965
M-CUBED/EXP-1 PRIME 21 Dec 23:35:08 23:37:53 15° 58° (ENE) 23:40:39 437.505
ANTELSAT 21 Dec 23:43:23 23:46:51 21° 294° (WNW) 23:50:18 437.575/2403.000
YUBILEINY 21 Dec 23:59:52 00:08:35 72° 279° (W) 00:17:19 435.215
POPSAT HIP 1 22 Dec 00:03:43 00:06:26 17° 294° (WNW) 00:09:09 437.405
SWISSCUBE 22 Dec 00:10:43 00:15:23 53° 73° (ENE) 00:20:03 437.505
ITUPSAT 1 22 Dec 00:11:49 00:16:26 49° 72° (ENE) 00:21:04 437.325
Oscar 19 22 Dec 00:13:02 00:15:57 15° 91° (E) 00:18:50 437.125/150
PCSat 22 Dec 00:16:17 00:18:33 13° 258° (WSW) 00:20:49 145.827
BUGSAT 1 22 Dec 00:24:17 00:25:43 12° 296° (WNW) 00:27:10 437.445
TISAT 1 22 Dec 00:25:10 00:27:44 16° 267° (W) 00:30:17 437.305
SPROUT 22 Dec 00:33:22 00:35:42 14° 268° (W) 00:38:04 437.525
BEESAT 22 Dec 00:35:16 00:40:04 88° 76° (ENE) 00:44:53 436.000
AUBIESAT-1 22 Dec 00:40:51 00:45:35 59° 69° (ENE) 00:50:24 437.475
O/OREOS (USA 219) 22 Dec 00:47:41 00:51:49 37° 297° (WNW) 00:55:59 437.305
M-CUBED/EXP-1 PRIME 22 Dec 01:07:28 01:12:16 70° 254° (WSW) 01:17:12 437.505
STARS 22 Dec 01:10:13 01:13:52 26° 69° (ENE) 01:17:31 437.465
KKS-1 22 Dec 01:16:21 01:20:35 46° 72° (ENE) 01:24:50 437.445
VERMONT LUNAR 22 Dec 01:28:47 01:31:39 23° 150° (SSE) 01:34:31 437.305
PHONESAT 2.4 22 Dec 01:49:39 01:52:31 22° 149° (SSE) 01:55:23 2401.200-2431.200
Oscar 19 22 Dec 01:50:32 01:55:40 62° 287° (WNW) 02:00:46 437.125/150
SWISSCUBE 22 Dec 01:50:46 01:53:32 15° 268° (W) 01:56:18 437.505
ITUPSAT 1 22 Dec 01:51:34 01:54:34 16° 267° (W) 01:57:35 437.325
YUBILEINY 22 Dec 02:03:18 02:07:05 13° 300° (WNW) 02:10:52 435.215
ITAMSAT 1 22 Dec 02:09:26 02:14:37 74° 103° (ESE) 02:19:46 435.822/435.867
Gurwin Techsat 1B 22 Dec 02:13:08 02:18:17 49° 100° (E) 02:23:24 435.225
AUBIESAT-1 22 Dec 02:17:58 02:20:49 16° 264° (W) 02:23:42 437.475
MOZHAYETS 4 22 Dec 02:39:13 02:40:48 12° 62° (ENE) 02:42:23
HORYU 2 22 Dec 02:40:26 02:44:32 33° 97° (E) 02:48:35 437.375
STARS 22 Dec 02:46:36 02:50:15 26° 264° (W) 02:53:56 437.465
KKS-1 22 Dec 02:54:57 02:57:27 15° 268° (W) 02:59:58 437.445
VERMONT LUNAR 22 Dec 03:06:09 03:09:41 83° 165° (SSE) 03:13:13 437.305
PHONESAT 2.4 22 Dec 03:27:16 03:30:54 79° 164° (SSE) 03:34:31 2401.200-2431.200
AIST 1 22 Dec 03:28:02 03:32:17 66° 265° (W) 03:36:29
AO-7 22 Dec 03:44:42 03:52:49 52° 102° (ESE) 04:00:52 29.400- 29.500
ITAMSAT 1 22 Dec 03:50:55 03:53:27 14° 299° (WNW) 03:55:59 435.822/435.867
Gurwin Techsat 1B 22 Dec 03:54:01 03:57:52 21° 296° (WNW) 04:01:42 435.225
GONETS M04 22 Dec 04:00:40 04:07:41 28° 82° (E) 04:14:42
MOZHAYETS 4 22 Dec 04:12:45 04:17:23 73° 258° (WSW) 04:22:03
HORYU 2 22 Dec 04:17:29 04:20:59 23° 293° (WNW) 04:24:29 437.375
JAS-2 22 Dec 04:22:49 04:27:48 34° 96° (E) 04:32:30 435.910
PRISM 22 Dec 04:23:46 04:26:57 21° 67° (ENE) 04:30:09 437.425
VERMONT LUNAR 22 Dec 04:44:34 04:48:06 68° 2° (N) 04:51:37 437.305
